Location: Brunsen
(51.8651°N, 9.8610°E)
Time: 08:53:30
(UTC+00:00)

Cosmos 839 Rocket - Pass Details

Date: 23 May 2024
Orbit: 965 x 2087 km, 65.9° (Epoch: 23 June)

Event Time Altitude Azimuth Distance (km) Brightness Sun altitude
Rises 01:15:17 0° 318° (NW) 4,439 7.7 -13.0°
Reaches altitude 10° 01:18:25 10° 320° (NW) 3,305 7.0 -12.8°
Maximum altitude 01:26:07 80° 48° (NE) 1,119 4.4 -12.2°
Drops below altitude 10° 01:32:28 10° 136° (SE) 2,759 6.2 -11.7°
Sets 01:34:52 0° 137° (SE) 3,664 6.9 -11.5°
